Kansas City, MO

6:00 PM CDT on September 25, 2016 (GMT -0500)
Kansas City Downtown

Weather History for KMKC - September, 2012

Change the Weather History Date:

Wednesday, September 26, 2012

  Actual Average Record
Temperature  
Mean Temperature 68 °F -  
Max Temperature 75 °F 74 °F 88 °F (1998)
Min Temperature 64 °F 53 °F 43 °F (2000)
Cooling Degree Days 4    
Growing Degree Days 18 (Base 50)    
Moisture  
Dew Point 62 °F    
Average Humidity 80    
Maximum Humidity 90    
Minimum Humidity 68    
Precipitation  
Precipitation 0.17 in - - ()
Sea Level Pressure  
Sea Level Pressure 29.99 in    
Wind  
Wind Speed 4 mph (WNW)    
Max Wind Speed 8 mph    
Max Gust Speed -    
Visibility 10 miles    
Events Rain    
Averages and records for this station are not official NWS values.
T = Trace of Precipitation, MM = Missing Value Source: NWS Daily Summary

Daily Weather History Graph

Daily Weather History Graph

Search for Another Location

Airport or City:

Trip Planner

Search our weather history database for the weather conditions in past years. The results will help you decide how hot, cold, wet, or windy it might be!

Date:

Astronomy

Sep. 26, 2012 Rise Set
Actual Time 7:10 AM CDT 7:08 PM CDT
Civil Twilight 6:43 AM CDT 7:34 PM CDT
Nautical Twilight 6:12 AM CDT 8:05 PM CDT
Astronomical Twilight 5:40 AM CDT 8:37 PM CDT
Moon 5:07 PM CDT (9/26) 3:38 AM CDT (9/26)
Length of Visible Light 12h 51m
Length of Day
11h 57m
Waxing Gibbous, 88% of the Moon is Illuminated
Sep 26
Waxing Gibbous
Sep 29
Full
Oct 8
Last Quarter
Oct 15
New
Oct 21
First Quarter

Hourly Weather History & Observations

Time (CDT) Temp. Dew Point Humidity Pressure Visibility Wind Dir Wind Speed Gust Speed Precip Events Conditions
12:54 AM 69.1 °F 62.1 °F 78% 29.85 in 10.0 mi South 4.6 mph - 0.01 in Rain Light Rain
1:54 AM 66.9 °F 63.0 °F 87% 29.86 in 10.0 mi Calm Calm - 0.01 in   Scattered Clouds
2:54 AM 66.9 °F 64.0 °F 90% 29.89 in 10.0 mi Calm Calm - 0.01 in Rain Light Rain
3:54 AM 66.0 °F 61.0 °F 84% 29.91 in 8.0 mi SW 8.1 mph - 0.07 in Rain Light Rain
4:54 AM 64.9 °F 61.0 °F 87% 29.91 in 10.0 mi West 5.8 mph - 0.05 in   Mostly Cloudy
5:54 AM 64.9 °F 61.0 °F 87% 29.88 in 10.0 mi NNE 8.1 mph - 0.01 in Rain Light Rain
6:54 AM 64.0 °F 61.0 °F 90% 29.96 in 10.0 mi SW 8.1 mph - 0.00 in   Mostly Cloudy
7:54 AM 64.9 °F 62.1 °F 90% 29.96 in 7.0 mi Calm Calm - 0.01 in Rain Light Rain
8:54 AM 66.0 °F 63.0 °F 90% 29.97 in 10.0 mi NW 3.5 mph - 0.00 in   Mostly Cloudy
9:54 AM 68.0 °F 63.0 °F 84% 29.99 in 10.0 mi Calm Calm - 0.00 in   Overcast
10:54 AM 70.0 °F 62.1 °F 76% 30.01 in 10.0 mi SW 5.8 mph - N/A   Mostly Cloudy
11:54 AM 71.1 °F 61.0 °F 70% 30.01 in 10.0 mi WSW 6.9 mph - N/A   Overcast
12:54 PM 71.1 °F 61.0 °F 70% 30.02 in 10.0 mi West 4.6 mph - N/A   Overcast
1:54 PM 71.1 °F 60.1 °F 68% 30.01 in 10.0 mi Calm Calm - N/A   Overcast
2:54 PM 72.0 °F 62.1 °F 71% 30.01 in 10.0 mi SSW 4.6 mph - N/A   Overcast
3:54 PM 73.9 °F 63.0 °F 68% 30.00 in 10.0 mi South 3.5 mph - N/A   Clear
4:54 PM 73.9 °F 63.0 °F 68% 30.01 in 10.0 mi NW 5.8 mph - N/A   Mostly Cloudy
5:14 PM 73.4 °F 64.4 °F 73% 30.03 in 10.0 mi NW 8.1 mph - N/A   Overcast
5:38 PM 71.6 °F 64.4 °F 78% 30.03 in 10.0 mi North 8.1 mph - N/A   Mostly Cloudy
5:54 PM 72.0 °F 64.0 °F 76% 30.02 in 10.0 mi NNW 6.9 mph - N/A   Scattered Clouds
6:54 PM 71.1 °F 63.0 °F 75% 30.03 in 10.0 mi North 5.8 mph - N/A   Scattered Clouds
7:54 PM 70.0 °F 63.0 °F 78% 30.05 in 10.0 mi Calm Calm - N/A   Mostly Cloudy
8:54 PM 69.1 °F 63.0 °F 81% 30.06 in 10.0 mi Calm Calm - N/A   Scattered Clouds
9:54 PM 69.1 °F 63.0 °F 81% 30.07 in 10.0 mi Calm Calm - N/A   Overcast
10:54 PM 66.2 °F 62.6 °F 88% 30.09 in 10.0 mi North 3.5 mph - N/A   Overcast
11:54 PM 66.9 °F 62.1 °F 84% 30.09 in 10.0 mi NE 3.5 mph - N/A   Overcast